TimePDT,TemperatureF,Dew PointF,Humidity,Sea Level PressureIn,VisibilityMPH,Wind Direction,Wind SpeedMPH,Gust SpeedMPH,PrecipitationIn,Events,Conditions,WindDirDegrees,DateUTC
12:15 AM,51.8,48.2,88,29.92,5.0,South,8.1,-,N/A,,Overcast,170,2013-11-02 07:15:00
12:35 AM,51.8,48.2,88,29.92,7.0,South,6.9,-,N/A,,Overcast,180,2013-11-02 07:35:00
12:55 AM,51.8,48.2,88,29.91,7.0,SSE,6.9,-,N/A,,Overcast,150,2013-11-02 07:55:00
1:15 AM,51.8,48.2,88,29.91,7.0,SSE,3.5,-,N/A,,Overcast,160,2013-11-02 08:15:00
1:35 AM,51.8,48.2,88,29.89,5.0,SSE,5.8,-,0.01,,Overcast,150,2013-11-02 08:35:00
1:55 AM,51.8,48.2,88,29.90,8.0,SW,3.5,-,0.02,,Overcast,230,2013-11-02 08:55:00
2:15 AM,51.8,48.2,88,29.89,8.0,Calm,Calm,-,0.01,,Overcast,0,2013-11-02 09:15:00
2:35 AM,51.8,50.0,94,29.88,7.0,South,11.5,-,0.02,,Overcast,170,2013-11-02 09:35:00
2:55 AM,51.8,50.0,94,29.88,10.0,SSW,9.2,-,0.05,,Overcast,200,2013-11-02 09:55:00
3:15 AM,51.8,50.0,94,29.87,10.0,South,10.4,-,N/A,,Overcast,180,2013-11-02 10:15:00
3:35 AM,51.8,50.0,94,29.85,10.0,South,12.7,-,0.01,,Overcast,170,2013-11-02 10:35:00
3:55 AM,51.8,48.2,88,29.83,10.0,South,13.8,-,0.01,,Overcast,190,2013-11-02 10:55:00
4:15 AM,51.8,48.2,88,29.83,10.0,South,15.0,-,N/A,,Overcast,180,2013-11-02 11:15:00
4:35 AM,51.8,48.2,88,29.83,8.0,South,11.5,-,0.01,,Mostly Cloudy,190,2013-11-02 11:35:00
4:55 AM,51.8,48.2,88,29.84,7.0,SSW,11.5,-,0.03,,Overcast,200,2013-11-02 11:55:00
5:15 AM,51.8,48.2,88,29.85,10.0,South,10.4,-,0.01,,Overcast,190,2013-11-02 12:15:00
5:35 AM,51.8,48.2,88,29.84,10.0,South,11.5,-,0.02,,Mostly Cloudy,180,2013-11-02 12:35:00
5:55 AM,51.8,48.2,88,29.84,10.0,South,12.7,-,0.02,,Overcast,180,2013-11-02 12:55:00
6:15 AM,51.8,48.2,88,29.85,10.0,South,12.7,-,N/A,,Overcast,190,2013-11-02 13:15:00
6:35 AM,51.8,48.2,88,29.86,10.0,SW,9.2,-,N/A,,Overcast,220,2013-11-02 13:35:00
6:55 AM,51.8,48.2,88,29.88,10.0,West,3.5,-,N/A,,Overcast,260,2013-11-02 13:55:00
7:15 AM,51.8,46.4,82,29.90,10.0,West,16.1,23.0,N/A,,Overcast,280,2013-11-02 14:15:00
7:35 AM,51.8,44.6,76,29.92,10.0,West,12.7,24.2,N/A,,Mostly Cloudy,270,2013-11-02 14:35:00
7:55 AM,50.0,44.6,82,29.93,10.0,West,15.0,23.0,N/A,,Partly Cloudy,280,2013-11-02 14:55:00
8:15 AM,50.0,44.6,82,29.94,10.0,West,13.8,20.7,N/A,,Mostly Cloudy,260,2013-11-02 15:15:00
8:35 AM,50.0,46.4,87,29.96,10.0,WSW,9.2,-,N/A,,Overcast,240,2013-11-02 15:35:00
8:55 AM,50.0,44.6,82,29.97,10.0,West,10.4,-,0.01,,Overcast,260,2013-11-02 15:55:00
9:15 AM,50.0,44.6,82,29.98,10.0,WSW,15.0,23.0,N/A,,Overcast,250,2013-11-02 16:15:00
9:35 AM,50.0,44.6,82,29.99,10.0,West,13.8,18.4,N/A,,Overcast,270,2013-11-02 16:35:00
9:55 AM,50.0,44.6,82,30.01,10.0,WNW,10.4,16.1,N/A,,Mostly Cloudy,290,2013-11-02 16:55:00
10:15 AM,51.8,44.6,76,30.01,10.0,West,10.4,-,N/A,,Mostly Cloudy,270,2013-11-02 17:15:00
10:35 AM,53.6,44.6,72,30.03,10.0,West,11.5,17.3,N/A,,Scattered Clouds,280,2013-11-02 17:35:00
10:55 AM,51.8,42.8,71,30.04,10.0,West,10.4,-,N/A,,Mostly Cloudy,270,2013-11-02 17:55:00
11:15 AM,53.6,42.8,67,30.04,10.0,West,13.8,-,N/A,,Scattered Clouds,280,2013-11-02 18:15:00
11:35 AM,53.6,41.0,62,30.05,10.0,West,13.8,18.4,N/A,,Mostly Cloudy,280,2013-11-02 18:35:00
11:55 AM,53.6,42.8,67,30.06,10.0,West,11.5,-,N/A,,Scattered Clouds,280,2013-11-02 18:55:00
12:15 PM,55.4,41.0,58,30.07,10.0,West,11.5,16.1,N/A,,Scattered Clouds,280,2013-11-02 19:15:00
12:35 PM,53.6,42.8,67,30.07,10.0,West,11.5,-,N/A,,Scattered Clouds,270,2013-11-02 19:35:00
12:55 PM,55.4,44.6,67,30.07,10.0,NW,13.8,24.2,N/A,,Mostly Cloudy,310,2013-11-02 19:55:00
1:15 PM,55.4,41.0,58,30.07,10.0,West,12.7,18.4,N/A,,Scattered Clouds,280,2013-11-02 20:15:00
1:35 PM,57.2,41.0,55,30.07,10.0,WNW,18.4,21.9,N/A,,Mostly Cloudy,290,2013-11-02 20:35:00
1:55 PM,55.4,41.0,58,30.07,10.0,WNW,13.8,21.9,N/A,,Mostly Cloudy,290,2013-11-02 20:55:00
2:15 PM,55.4,42.8,63,30.07,10.0,West,10.4,20.7,N/A,,Partly Cloudy,280,2013-11-02 21:15:00
2:35 PM,55.4,39.2,54,30.07,9.0,WNW,18.4,31.1,N/A,,Mostly Cloudy,290,2013-11-02 21:35:00
2:55 PM,53.6,41.0,62,30.08,10.0,West,11.5,-,N/A,,Mostly Cloudy,270,2013-11-02 21:55:00
3:15 PM,51.8,42.8,71,30.09,10.0,West,11.5,20.7,N/A,,Mostly Cloudy,280,2013-11-02 22:15:00
3:35 PM,53.6,42.8,67,30.09,10.0,West,10.4,-,N/A,,Scattered Clouds,280,2013-11-02 22:35:00
3:55 PM,50.0,41.0,71,30.10,8.0,NW,23.0,29.9,0.03,,Mostly Cloudy,310,2013-11-02 22:55:00
4:15 PM,48.2,41.0,76,30.09,10.0,West,11.5,-,0.02,,Mostly Cloudy,280,2013-11-02 23:15:00
4:35 PM,48.2,42.8,82,30.10,9.0,West,9.2,20.7,0.02,,Mostly Cloudy,280,2013-11-02 23:35:00
4:55 PM,46.4,41.0,81,30.10,10.0,West,12.7,16.1,0.03,,Mostly Cloudy,270,2013-11-02 23:55:00
5:15 PM,46.4,41.0,81,30.11,10.0,West,11.5,-,N/A,,Partly Cloudy,280,2013-11-03 00:15:00
5:35 PM,46.4,41.0,81,30.11,10.0,WNW,5.8,-,N/A,,Partly Cloudy,290,2013-11-03 00:35:00
5:55 PM,46.4,42.8,87,30.12,10.0,NW,3.5,-,N/A,,Mostly Cloudy,320,2013-11-03 00:55:00
6:15 PM,46.4,42.8,87,30.11,10.0,West,5.8,-,N/A,,Mostly Cloudy,260,2013-11-03 01:15:00
6:35 PM,46.4,41.0,81,30.11,10.0,West,4.6,-,N/A,,Partly Cloudy,270,2013-11-03 01:35:00
6:55 PM,44.6,42.8,93,30.12,10.0,WSW,6.9,-,N/A,,Mostly Cloudy,250,2013-11-03 01:55:00
7:15 PM,46.4,42.8,87,30.11,10.0,WSW,5.8,-,N/A,,Mostly Cloudy,250,2013-11-03 02:15:00
7:35 PM,44.6,41.0,87,30.12,10.0,WSW,3.5,-,N/A,,Scattered Clouds,250,2013-11-03 02:35:00
7:55 PM,44.6,39.2,81,30.12,10.0,SSW,5.8,-,N/A,,Partly Cloudy,210,2013-11-03 02:55:00
8:15 PM,42.8,39.2,87,30.12,10.0,SSW,5.8,-,N/A,,Scattered Clouds,200,2013-11-03 03:15:00
8:35 PM,42.8,39.2,87,30.12,10.0,South,8.1,-,N/A,,Partly Cloudy,190,2013-11-03 03:35:00
8:55 PM,42.8,39.2,87,30.12,10.0,South,8.1,-,N/A,,Clear,190,2013-11-03 03:55:00
9:15 PM,42.8,39.2,87,30.12,10.0,South,6.9,-,N/A,,Scattered Clouds,190,2013-11-03 04:15:00
9:35 PM,42.8,39.2,87,30.12,9.0,SSW,10.4,-,N/A,,Mostly Cloudy,210,2013-11-03 04:35:00
9:55 PM,44.6,39.2,81,30.12,10.0,SW,6.9,-,N/A,,Partly Cloudy,220,2013-11-03 04:55:00
10:15 PM,42.8,39.2,87,30.12,10.0,SSW,6.9,-,N/A,,Partly Cloudy,210,2013-11-03 05:15:00
10:35 PM,42.8,39.2,87,30.12,10.0,Calm,Calm,-,N/A,,Scattered Clouds,0,2013-11-03 05:35:00
10:55 PM,42.8,39.2,87,30.12,10.0,South,6.9,-,N/A,,Mostly Cloudy,180,2013-11-03 05:55:00
11:15 PM,42.8,39.2,87,30.12,10.0,SSW,8.1,-,N/A,,Partly Cloudy,200,2013-11-03 06:15:00
11:35 PM,42.8,41.0,93,30.13,10.0,SW,8.1,-,N/A,,Mostly Cloudy,220,2013-11-03 06:35:00
11:55 PM,44.6,39.2,81,30.12,10.0,South,8.1,-,N/A,,Mostly Cloudy,180,2013-11-03 06:55:00